Tracking 28081 objects as of 27-Sep-2023
HD Live streaming from Space Station
objects crossing your sky now

YAOGAN-30 P

Track YAOGAN-30 P now!
10-day predictions


NORAD ID: 44450
Int'l Code: 2019-045B
Perigee: 589.8 km
Apogee: 601.7 km
Inclination: 35.0 °
Period: 96.5 minutes
Semi major axis: 6966 km
RCS: Unknown
Launch date: July 26, 2019
Source: People's Republic of China (PRC)
Launch site: Xichang Space Center, China (XSC)
Your satellite tracking list
Your tracking list is empty




NASA's NSSDC Master Catalog

Two Line Element Set (TLE):
1 44450U 19045B   23270.19718387  .00005093  00000-0  48302-3 0  9991
2 44450  34.9926 225.5633 0008559  72.7728 287.3913 14.92983228227505
Source of the keplerian elements: AFSPC